| time (UTC) | temp F | wind direction | speed MPH | gust MPH | rain 1hr in | rain 24hr in | rain mn in | humidity % | barometer mb |
| 20260506094829 | 57 | 175 | 10.0 | 14.0 | 0.00 | 0.62 | 0.33 | 97 | 1007.2 |
| 20260506093328 | 57 | 117 | 5.0 | 14.0 | 0.00 | 0.67 | 0.33 | 97 | 1007.2 |
| 20260506091840 | 56 | 180 | 9.0 | 14.0 | 0.02 | 0.67 | 0.33 | 97 | 1007.3 |
| 20260506090340 | 56 | 208 | 6.0 | 13.0 | 0.05 | 0.67 | 0.33 | 97 | 1007.0 |
| 20260506084841 | 56 | 163 | 6.0 | 11.0 | 0.07 | 0.67 | 0.33 | 97 | 1006.9 |
| 20260506083333 | 56 | 148 | 5.0 | 18.0 | 0.07 | 0.67 | 0.33 | 97 | 1007.2 |
| 20260506081828 | 56 | 186 | 4.0 | 10.0 | 0.08 | 0.65 | 0.31 | 97 | 1007.4 |
| 20260506080330 | 55 | 168 | 4.0 | 12.0 | 0.06 | 0.62 | 0.28 | 97 | 1007.4 |
| 20260506073337 | 56 | 181 | 10.0 | 18.0 | 0.06 | 0.73 | 0.26 | 97 | 1007.5 |
| 20260506071832 | 56 | 161 | 6.0 | 15.0 | 0.04 | 0.71 | 0.24 | 97 | 1007.4 |
| 20260506070329 | 56 | 108 | 5.0 | 11.0 | 0.02 | 0.69 | 0.22 | 97 | 1007.7 |
| 20260506061830 | 55 | 220 | 3.0 | 10.0 | 0.01 | 0.90 | 0.20 | 97 | 1007.5 |
| 20260506060330 | 55 | 188 | 5.0 | 11.0 | 0.02 | 0.90 | 0.20 | 97 | 1007.8 |
| 20260506050342 | 55 | 175 | 3.0 | 10.0 | 0.02 | 0.89 | 0.18 | 97 | 1007.9 |
| 20260506044840 | 55 | 194 | 4.0 | 7.0 | 0.02 | 0.89 | 0.18 | 97 | 1008.2 |
| 20260506043333 | 55 | 155 | 4.0 | 7.0 | 0.02 | 0.89 | 0.18 | 97 | 1008.3 |
| 20260506041832 | 55 | 194 | 3.0 | 9.0 | 0.02 | 0.88 | 0.17 | 97 | 1008.4 |
| 20260506040346 | 55 | 188 | 5.0 | 12.0 | 0.01 | 0.87 | 0.16 | 97 | 1008.6 |
| 20260506034835 | 55 | 180 | 6.0 | 10.0 | 0.02 | 0.87 | 0.16 | 97 | 1008.5 |
| 20260506033344 | 55 | 169 | 2.0 | 6.0 | 0.03 | 0.87 | 0.16 | 97 | 1008.5 |
| 20260506031844 | 55 | 205 | 3.0 | 11.0 | 0.03 | 0.86 | 0.15 | 97 | 1008.6 |
| 20260506030343 | 55 | 146 | 3.0 | 6.0 | 0.04 | 0.86 | 0.15 | 97 | 1008.6 |
| 20260506024839 | 55 | 195 | 4.0 | 11.0 | 0.03 | 0.85 | 0.14 | 97 | 1009.2 |
| 20260506023330 | 55 | 217 | 4.0 | 9.0 | 0.03 | 0.84 | 0.13 | 97 | 1009.3 |
| 20260506021832 | 56 | 179 | 4.0 | 6.0 | 0.02 | 0.83 | 0.12 | 97 | 1009.6 |
| 20260506020347 | 56 | 163 | 3.0 | 6.0 | 0.01 | 0.82 | 0.11 | 97 | 1009.6 |
| 20260506014836 | 56 | 182 | 2.0 | 5.0 | 0.03 | 0.82 | 0.11 | 96 | 1009.6 |
| 20260506013336 | 56 | 209 | 3.0 | 7.0 | 0.10 | 0.81 | 0.10 | 96 | 1009.6 |
| 20260506011826 | 56 | 222 | 2.0 | 10.0 | 0.10 | 0.81 | 0.10 | 96 | 1009.7 |
| 20260506010343 | 56 | 192 | 3.0 | 7.0 | 0.10 | 0.81 | 0.10 | 96 | 1009.8 |
| 20260506004836 | 56 | 209 | 2.0 | 6.0 | 0.08 | 0.79 | 0.08 | 96 | 1010.0 |
| 20260506003332 | 56 | 143 | 0.0 | 4.0 | 0.00 | 0.71 | 0.00 | 96 | 1010.2 |
| 20260506001829 | 56 | 132 | 2.0 | 3.0 | 0.00 | 0.71 | 0.00 | 96 | 1010.3 |
| 20260506000344 | 56 | 129 | 2.0 | 4.0 | 0.00 | 0.71 | 0.00 | 96 | 1010.5 |
| 20260505234837 | 55 | 134 | 1.0 | 4.0 | 0.00 | 0.71 | 0.00 | 96 | 1010.7 |
| 20260505233332 | 55 | 146 | 0.0 | 0.0 | 0.00 | 0.71 | 0.00 | 96 | 1010.9 |
| 20260505231845 | 55 | 146 | 0.0 | 0.0 | 0.00 | 0.71 | 0.00 | 96 | 1010.9 |
| 20260505230337 | 55 | 146 | 0.0 | 0.0 | 0.00 | 0.71 | 0.00 | 96 | 1011.0 |
| 20260505224831 | 55 | 144 | 0.0 | 3.0 | 0.00 | 0.71 | 0.00 | 96 | 1011.1 |
| 20260505223344 | 55 | 145 | 0.0 | 3.0 | 0.00 | 0.71 | 0.00 | 96 | 1011.2 |
| 20260505221841 | 55 | 135 | 1.0 | 4.0 | 0.00 | 0.71 | 0.00 | 96 | 1011.3 |
| 20260505220341 | 55 | 158 | 2.0 | 5.0 | 0.00 | 0.71 | 0.00 | 96 | 1011.3 |
| 20260505214831 | 55 | 140 | 4.0 | 6.0 | 0.00 | 0.71 | 0.71 | 96 | 1011.4 |
| 20260505213344 | 55 | 161 | 1.0 | 4.0 | 0.00 | 0.71 | 0.71 | 96 | 1011.7 |
| 20260505211840 | 55 | 161 | 0.0 | 4.0 | 0.00 | 0.71 | 0.71 | 96 | 1011.8 |
| 20260505210332 | 55 | 186 | 1.0 | 3.0 | 0.00 | 0.71 | 0.71 | 96 | 1011.8 |
| 20260505204836 | 55 | 147 | 2.0 | 3.0 | 0.01 | 0.71 | 0.71 | 96 | 1011.9 |
| 20260505203335 | 55 | 204 | 0.0 | 4.0 | 0.01 | 0.71 | 0.71 | 96 | 1011.9 |
| 20260505201845 | 55 | 171 | 1.0 | 4.0 | 0.01 | 0.71 | 0.71 | 96 | 1012.0 |
| 20260505200336 | 55 | 182 | 3.0 | 5.0 | 0.01 | 0.71 | 0.71 | 96 | 1012.0 |
| 20260505194828 | 55 | 167 | 3.0 | 7.0 | 0.00 | 0.70 | 0.70 | 96 | 1011.9 |
| 20260505193341 | 55 | 186 | 1.0 | 4.0 | 0.00 | 0.70 | 0.70 | 96 | 1011.8 |
| 20260505191834 | 55 | 161 | 1.0 | 4.0 | 0.00 | 0.70 | 0.70 | 96 | 1011.8 |
| 20260505190342 | 55 | 161 | 0.0 | 3.0 | 0.01 | 0.70 | 0.70 | 96 | 1011.7 |
| 20260505184829 | 55 | 182 | 3.0 | 7.0 | 0.02 | 0.70 | 0.70 | 96 | 1011.4 |
| 20260505183346 | 55 | 179 | 1.0 | 6.0 | 0.06 | 0.70 | 0.70 | 95 | 1011.4 |
| 20260505181837 | 55 | 154 | 1.0 | 5.0 | 0.13 | 0.70 | 0.70 | 95 | 1011.3 |
| 20260505180330 | 55 | 186 | 2.0 | 4.0 | 0.13 | 0.69 | 0.69 | 95 | 1011.4 |
| 20260505174839 | 55 | 138 | 6.0 | 7.0 | 0.12 | 0.68 | 0.68 | 95 | 1011.4 |
| 20260505173330 | 55 | 131 | 3.0 | 4.0 | 0.09 | 0.64 | 0.64 | 95 | 1011.4 |
| 20260505171846 | 55 | 180 | 2.0 | 7.0 | 0.03 | 0.57 | 0.57 | 95 | 1011.4 |
| 20260505170341 | 55 | 194 | 1.0 | 10.0 | 0.02 | 0.56 | 0.56 | 95 | 1011.5 |
| 20260505164835 | 56 | 123 | 2.0 | 7.0 | 0.03 | 0.56 | 0.56 | 95 | 1011.5 |
| 20260505163348 | 56 | 150 | 2.0 | 5.0 | 0.02 | 0.55 | 0.55 | 95 | 1011.5 |
| 20260505161841 | 56 | 136 | 5.0 | 9.0 | 0.01 | 0.54 | 0.54 | 95 | 1011.6 |
| 20260505160336 | 56 | 123 | 2.0 | 5.0 | 0.01 | 0.54 | 0.54 | 94 | 1011.6 |
| 20260505153342 | 56 | 136 | 5.0 | 6.0 | 0.01 | 0.53 | 0.53 | 94 | 1011.8 |
| 20260505151843 | 56 | 130 | 1.0 | 6.0 | 0.01 | 0.53 | 0.53 | 94 | 1011.7 |
| 20260505150340 | 56 | 122 | 3.0 | 6.0 | 0.01 | 0.53 | 0.53 | 94 | 1011.9 |
| 20260505140336 | 56 | 127 | 0.0 | 7.0 | 0.00 | 0.52 | 0.52 | 93 | 1012.0 |
| 20260505124848 | 55 | 113 | 2.0 | 6.0 | 0.00 | 0.52 | 0.52 | 93 | 1012.4 |
| 20260505123343 | 55 | 117 | 2.0 | 5.0 | 0.01 | 0.52 | 0.52 | 93 | 1012.4 |
| 20260505121838 | 55 | 118 | 0.0 | 4.0 | 0.02 | 0.52 | 0.52 | 93 | 1012.4 |
| 20260505120337 | 55 | 120 | 0.0 | 3.0 | 0.03 | 0.52 | 0.52 | 93 | 1012.4 |
| 20260505114846 | 55 | 63 | 2.0 | 3.0 | 0.04 | 0.52 | 0.52 | 93 | 1012.5 |
| 20260505113340 | 55 | 127 | 0.0 | 4.0 | 0.04 | 0.51 | 0.51 | 93 | 1012.6 |
| 20260505111835 | 55 | 28 | 1.0 | 4.0 | 0.04 | 0.50 | 0.50 | 93 | 1012.7 |
| 20260505110335 | 55 | 56 | 0.0 | 0.0 | 0.04 | 0.49 | 0.49 | 93 | 1012.8 |
| 20260505101845 | 55 | 68 | 2.0 | 3.0 | 0.06 | 0.47 | 0.47 | 92 | 1012.7 |
| 20260505100342 | 55 | 95 | 0.0 | 0.0 | 0.05 | 0.45 | 0.45 | 92 | 1012.8 |